This is the latest recevied weather packets stored in our database for station/object K7SKM. If no packets are shown the sender has not sent any weather packets the latest 10 day(s).
| Time | Temp. | Humidity | Pressure | Rain* | Wind** | Luminosity | Snow |
|---|---|---|---|---|---|---|---|
| 1777663382 | 19.44° C | 52% | 1020.6 hPa | 0 mm | - | 326 W/m² | - |
| 1777663080 | 18.89° C | 52% | 1020.4 hPa | 0 mm | - | 369 W/m² | - |
| 1777662777 | 18.89° C | 52% | 1020.5 hPa | 0 mm | - | 332 W/m² | - |
| 1777662474 | 18.89° C | 52% | 1020.5 hPa | 0 mm | - | 319 W/m² | - |
| 1777662169 | 19.44° C | 52% | 1020.5 hPa | 0 mm | - | 272 W/m² | - |
| 1777661865 | 19.44° C | 52% | 1020.5 hPa | 0 mm | - | 259 W/m² | - |
| 1777661561 | 18.89° C | 52% | 1020.7 hPa | 0 mm | - | 253 W/m² | - |
| 1777661257 | 19.44° C | 51% | 1020.7 hPa | 0 mm | - | 208 W/m² | - |
| 1777660953 | 20° C | 50% | 1020.6 hPa | 0 mm | - | 257 W/m² | - |
| 1777660649 | 20° C | 50% | 1020.8 hPa | 0 mm | - | 284 W/m² | - |
| 1777660346 | 19.44° C | 52% | 1020.7 hPa | 0 mm | - | 301 W/m² | - |
| 1777660042 | 20° C | 50% | 1020.8 hPa | 0 mm | - | 309 W/m² | - |
| 1777659740 | 20.56° C | 48% | 1020.8 hPa | 0 mm | - | 292 W/m² | - |
| 1777659436 | 20.56° C | 47% | 1020.7 hPa | 0 mm | - | 290 W/m² | - |
| 1777659134 | 20.56° C | 47% | 1020.9 hPa | 0 mm | - | 164 W/m² | - |
| 1777658832 | 20.56° C | 47% | 1020.7 hPa | 0 mm | - | 158 W/m² | - |
| 1777658527 | 20° C | 47% | 1020.7 hPa | 0 mm | - | 306 W/m² | - |
| 1777658224 | 20° C | 49% | 1020.6 hPa | 0 mm | - | 276 W/m² | - |
| 1777657921 | 20° C | 51% | 1020.8 hPa | 0 mm | - | 299 W/m² | - |
| 1777657617 | 19.44° C | 51% | 1021.1 hPa | 0 mm | - | 305 W/m² | - |
| 1777657315 | 19.44° C | 50% | 1020.9 hPa | 0 mm | - | 305 W/m² | - |
| 1777657012 | 19.44° C | 52% | 1021 hPa | 0 mm | - | 276 W/m² | - |
| 1777656709 | 19.44° C | 53% | 1020.9 hPa | 0 mm | - | 277 W/m² | - |
| 1777656405 | 18.89° C | 55% | 1021.1 hPa | 0 mm | - | 267 W/m² | - |
| 1777656101 | 18.89° C | 56% | 1021.2 hPa | 0 mm | - | 269 W/m² | - |
* Rain latest hour (hover to see other rain measurements)
** Current wind speed in m/s (hover to see current wind gust speed)